PRIVATE WETTERSTATION BILLIGHEIM-ALLFELD                       ZURCK
Wetterdaten: Dienstag, 21.11.2017
Datum Zeit Temp. A. Temp. A. min Temp. A. max Feuchte A. Luftdruck Regen Wind Richtung Richtung Sonnenschein ET Solar Taupunkt Windchill Windben Empfang
21.11.2017 00:00 4,8 C 4,8 C 4,8 C 91 % 1016,4 hPa 0,2 l/m 14,5 km/h (3 Bft) W-SW 247 0 min 0,025 mm 0 W/m 3,5 C -0,9 C 33,8 km/h (5 Bft) 100 %
21.11.2017 00:10 4,9 C 4,8 C 4,9 C 90 % 1016,5 hPa 0,0 l/m 12,9 km/h (3 Bft) W 270 0 min 0,000 mm 0 W/m 3,4 C 0,1 C 30,6 km/h (5 Bft) 100 %
21.11.2017 00:20 5,0 C 4,9 C 5,0 C 91 % 1016,4 hPa 0,2 l/m 14,5 km/h (3 Bft) W 270 0 min 0,000 mm 0 W/m 3,7 C -0,7 C 33,8 km/h (5 Bft) 100 %
21.11.2017 00:30 5,0 C 5,0 C 5,0 C 91 % 1016,3 hPa 0,0 l/m 16,1 km/h (3 Bft) W-SW 247 0 min 0,000 mm 0 W/m 3,7 C -1,5 C 37,0 km/h (5 Bft) 100 %
21.11.2017 00:40 5,1 C 5,0 C 5,1 C 91 % 1016,3 hPa 0,0 l/m 11,3 km/h (2 Bft) W-SW 247 0 min 0,000 mm 0 W/m 3,8 C 1,3 C 30,6 km/h (5 Bft) 100 %
21.11.2017 00:50 5,1 C 5,1 C 5,1 C 91 % 1016,3 hPa 0,0 l/m 16,1 km/h (3 Bft) W-SW 247 0 min 0,000 mm 0 W/m 3,8 C -1,3 C 37,0 km/h (5 Bft) 100 %
21.11.2017 01:00 5,2 C 5,1 C 5,2 C 90 % 1016,2 hPa 0,0 l/m 16,1 km/h (3 Bft) W-SW 247 0 min 0,025 mm 0 W/m 3,7 C -1,2 C 35,4 km/h (5 Bft) 100 %
21.11.2017 01:10 5,2 C 5,2 C 5,2 C 90 % 1016,4 hPa 0,0 l/m 17,7 km/h (3 Bft) W-SW 247 0 min 0,000 mm 0 W/m 3,7 C -2,0 C 38,6 km/h (5 Bft) 100 %
21.11.2017 01:20 5,3 C 5,2 C 5,3 C 90 % 1016,2 hPa 0,0 l/m 16,1 km/h (3 Bft) W-SW 247 0 min 0,000 mm 0 W/m 3,8 C -1,1 C 40,2 km/h (6 Bft) 100 %
21.11.2017 01:30 5,3 C 5,3 C 5,3 C 90 % 1016,4 hPa 0,0 l/m 12,9 km/h (3 Bft) W 270 0 min 0,000 mm 0 W/m 3,8 C 0,6 C 29,0 km/h (5 Bft) 100 %
21.11.2017 01:40 5,3 C 5,3 C 5,3 C 90 % 1016,4 hPa 0,0 l/m 16,1 km/h (3 Bft) W-SW 247 0 min 0,000 mm 0 W/m 3,8 C -1,1 C 30,6 km/h (5 Bft) 100 %
21.11.2017 01:50 5,3 C 5,3 C 5,3 C 90 % 1016,3 hPa 0,0 l/m 16,1 km/h (3 Bft) W-SW 247 0 min 0,000 mm 0 W/m 3,8 C -1,1 C 35,4 km/h (5 Bft) 100 %
21.11.2017 02:00 5,3 C 5,3 C 5,3 C 90 % 1016,0 hPa 0,0 l/m 12,9 km/h (3 Bft) W-SW 247 0 min 0,025 mm 0 W/m 3,8 C 0,6 C 35,4 km/h (5 Bft) 100 %
21.11.2017 02:10 5,3 C 5,3 C 5,3 C 91 % 1016,0 hPa 0,0 l/m 12,9 km/h (3 Bft) W-SW 247 0 min 0,000 mm 0 W/m 4,0 C 0,6 C 35,4 km/h (5 Bft) 100 %
21.11.2017 02:20 5,4 C 5,3 C 5,4 C 91 % 1016,0 hPa 0,0 l/m 11,3 km/h (2 Bft) W 270 0 min 0,000 mm 0 W/m 4,1 C 1,7 C 27,4 km/h (4 Bft) 100 %
21.11.2017 02:30 5,4 C 5,3 C 5,4 C 91 % 1016,2 hPa 0,0 l/m 16,1 km/h (3 Bft) W 270 0 min 0,000 mm 0 W/m 4,1 C -1,0 C 38,6 km/h (5 Bft) 100 %
21.11.2017 02:40 5,4 C 5,4 C 5,4 C 91 % 1015,9 hPa 0,0 l/m 12,9 km/h (3 Bft) W-SW 247 0 min 0,000 mm 0 W/m 4,1 C 0,7 C 32,2 km/h (5 Bft) 100 %
21.11.2017 02:50 5,4 C 5,4 C 5,4 C 90 % 1016,1 hPa 0,0 l/m 14,5 km/h (3 Bft) W-SW 247 0 min 0,000 mm 0 W/m 3,9 C -0,2 C 32,2 km/h (5 Bft) 100 %
21.11.2017 03:00 5,5 C 5,4 C 5,5 C 90 % 1016,0 hPa 0,0 l/m 11,3 km/h (2 Bft) W 270 0 min 0,025 mm 0 W/m 4,0 C 1,8 C 33,8 km/h (5 Bft) 100 %
21.11.2017 03:10 5,5 C 5,5 C 5,5 C 90 % 1015,9 hPa 0,0 l/m 16,1 km/h (3 Bft) W 270 0 min 0,000 mm 0 W/m 4,0 C -0,9 C 35,4 km/h (5 Bft) 100 %
21.11.2017 03:20 5,6 C 5,5 C 5,6 C 90 % 1016,0 hPa 0,0 l/m 17,7 km/h (3 Bft) W-SW 247 0 min 0,000 mm 0 W/m 4,1 C -1,5 C 33,8 km/h (5 Bft) 100 %
21.11.2017 03:30 5,6 C 5,6 C 5,6 C 90 % 1016,1 hPa 0,0 l/m 16,1 km/h (3 Bft) W 270 0 min 0,000 mm 0 W/m 4,1 C -0,7 C 35,4 km/h (5 Bft) 100 %
21.11.2017 03:40 5,6 C 5,6 C 5,6 C 90 % 1015,9 hPa 0,0 l/m 11,3 km/h (2 Bft) W 270 0 min 0,000 mm 0 W/m 4,1 C 1,9 C 29,0 km/h (5 Bft) 100 %
21.11.2017 03:50 5,7 C 5,6 C 5,7 C 90 % 1015,8 hPa 0,0 l/m 8,0 km/h (2 Bft) W-NW 292 0 min 0,000 mm 0 W/m 4,2 C 4,3 C 27,4 km/h (4 Bft) 91 %
21.11.2017 04:00 5,7 C 5,7 C 5,7 C 90 % 1015,9 hPa 0,0 l/m 9,7 km/h (2 Bft) W 270 0 min 0,025 mm 0 W/m 4,2 C 3,1 C 27,4 km/h (4 Bft) 100 %
21.11.2017 04:10 5,7 C 5,7 C 5,7 C 90 % 1015,8 hPa 0,0 l/m 11,3 km/h (2 Bft) W-SW 247 0 min 0,000 mm 0 W/m 4,2 C 2,0 C 30,6 km/h (5 Bft) 100 %
21.11.2017 04:20 5,7 C 5,7 C 5,8 C 90 % 1015,7 hPa 0,0 l/m 12,9 km/h (3 Bft) W 270 0 min 0,000 mm 0 W/m 4,2 C 1,0 C 24,1 km/h (4 Bft) 100 %
21.11.2017 04:30 5,7 C 5,7 C 5,8 C 90 % 1015,7 hPa 0,0 l/m 9,7 km/h (2 Bft) W 270 0 min 0,000 mm 0 W/m 4,2 C 3,1 C 25,7 km/h (4 Bft) 100 %
21.11.2017 04:40 5,8 C 5,7 C 5,8 C 90 % 1015,8 hPa 0,0 l/m 11,3 km/h (2 Bft) W 270 0 min 0,000 mm 0 W/m 4,3 C 2,1 C 29,0 km/h (5 Bft) 100 %
21.11.2017 04:50 5,8 C 5,7 C 5,8 C 90 % 1015,8 hPa 0,0 l/m 16,1 km/h (3 Bft) W-SW 247 0 min 0,000 mm 0 W/m 4,3 C -0,5 C 37,0 km/h (5 Bft) 100 %
21.11.2017 05:00 5,8 C 5,8 C 5,8 C 90 % 1015,8 hPa 0,0 l/m 12,9 km/h (3 Bft) W-SW 247 0 min 0,025 mm 0 W/m 4,3 C 1,2 C 33,8 km/h (5 Bft) 100 %
21.11.2017 05:10 5,8 C 5,8 C 5,8 C 90 % 1016,2 hPa 0,0 l/m 9,7 km/h (2 Bft) W-SW 247 0 min 0,000 mm 0 W/m 4,3 C 3,2 C 29,0 km/h (5 Bft) 100 %
21.11.2017 05:20 5,9 C 5,8 C 5,9 C 90 % 1016,3 hPa 0,0 l/m 11,3 km/h (2 Bft) W-SW 247 0 min 0,000 mm 0 W/m 4,4 C 2,2 C 33,8 km/h (5 Bft) 100 %
21.11.2017 05:30 5,9 C 5,9 C 5,9 C 90 % 1016,3 hPa 0,0 l/m 8,0 km/h (2 Bft) W 270 0 min 0,000 mm 0 W/m 4,4 C 4,5 C 24,1 km/h (4 Bft) 100 %
21.11.2017 05:40 5,9 C 5,9 C 5,9 C 90 % 1016,4 hPa 0,0 l/m 12,9 km/h (3 Bft) W-SW 247 0 min 0,000 mm 0 W/m 4,4 C 1,3 C 37,0 km/h (5 Bft) 100 %
21.11.2017 05:50 5,9 C 5,9 C 5,9 C 90 % 1016,3 hPa 0,0 l/m 14,5 km/h (3 Bft) W-SW 247 0 min 0,000 mm 0 W/m 4,4 C 0,4 C 37,0 km/h (5 Bft) 100 %
21.11.2017 06:00 5,9 C 5,9 C 6,0 C 90 % 1016,3 hPa 0,0 l/m 12,9 km/h (3 Bft) W-SW 247 0 min 0,025 mm 0 W/m 4,4 C 1,3 C 32,2 km/h (5 Bft) 100 %
21.11.2017 06:10 6,0 C 5,9 C 6,0 C 90 % 1016,2 hPa 0,0 l/m 11,3 km/h (2 Bft) W 270 0 min 0,000 mm 0 W/m 4,5 C 2,3 C 35,4 km/h (5 Bft) 90 %
21.11.2017 06:20 6,0 C 5,9 C 6,0 C 90 % 1016,2 hPa 0,0 l/m 17,7 km/h (3 Bft) W-SW 247 0 min 0,000 mm 0 W/m 4,5 C -1,0 C 32,2 km/h (5 Bft) 100 %
21.11.2017 06:30 6,0 C 6,0 C 6,0 C 90 % 1016,3 hPa 0,0 l/m 12,9 km/h (3 Bft) W-SW 247 0 min 0,000 mm 0 W/m 4,5 C 1,4 C 32,2 km/h (5 Bft) 100 %
21.11.2017 06:40 6,1 C 6,0 C 6,1 C 90 % 1016,4 hPa 0,0 l/m 12,9 km/h (3 Bft) W-SW 247 0 min 0,000 mm 0 W/m 4,6 C 1,5 C 29,0 km/h (5 Bft) 100 %
21.11.2017 06:50 6,1 C 6,0 C 6,1 C 91 % 1016,3 hPa 0,0 l/m 16,1 km/h (3 Bft) W-SW 247 0 min 0,000 mm 0 W/m 4,7 C -0,1 C 30,6 km/h (5 Bft) 100 %
21.11.2017 07:00 6,1 C 6,1 C 6,1 C 91 % 1016,3 hPa 0,0 l/m 12,9 km/h (3 Bft) W-SW 247 0 min 0,025 mm 0 W/m 4,7 C 1,5 C 32,2 km/h (5 Bft) 100 %
21.11.2017 07:10 6,1 C 6,1 C 6,1 C 90 % 1016,2 hPa 0,0 l/m 11,3 km/h (2 Bft) W-SW 247 0 min 0,000 mm 0 W/m 4,6 C 2,4 C 30,6 km/h (5 Bft) 100 %
21.11.2017 07:20 6,1 C 6,1 C 6,1 C 90 % 1016,3 hPa 0,0 l/m 12,9 km/h (3 Bft) W-SW 247 0 min 0,000 mm 0 W/m 4,6 C 1,5 C 30,6 km/h (5 Bft) 100 %
21.11.2017 07:30 6,1 C 6,1 C 6,1 C 90 % 1016,3 hPa 0,0 l/m 11,3 km/h (2 Bft) W-SW 247 0 min 0,000 mm 0 W/m 4,6 C 2,4 C 27,4 km/h (4 Bft) 100 %
21.11.2017 07:40 6,1 C 6,1 C 6,1 C 90 % 1016,2 hPa 0,0 l/m 16,1 km/h (3 Bft) W-SW 247 0 min 0,000 mm 0 W/m 4,6 C -0,1 C 35,4 km/h (5 Bft) 100 %
21.11.2017 07:50 6,1 C 6,1 C 6,1 C 90 % 1016,4 hPa 0,0 l/m 12,9 km/h (3 Bft) W-SW 247 0 min 0,000 mm 0 W/m 4,6 C 1,5 C 25,7 km/h (4 Bft) 100 %
21.11.2017 08:00 6,2 C 6,1 C 6,2 C 91 % 1016,5 hPa 0,0 l/m 12,9 km/h (3 Bft) W-SW 247 0 min 0,000 mm 0 W/m 4,8 C 1,6 C 33,8 km/h (5 Bft) 100 %
21.11.2017 08:10 6,2 C 6,1 C 6,2 C 91 % 1016,4 hPa 0,0 l/m 14,5 km/h (3 Bft) W-SW 247 0 min 0,000 mm 0 W/m 4,8 C 0,8 C 33,8 km/h (5 Bft) 100 %
21.11.2017 08:20 6,2 C 6,2 C 6,2 C 91 % 1016,4 hPa 0,0 l/m 12,9 km/h (3 Bft) W-SW 247 0 min 0,000 mm 0 W/m 4,8 C 1,6 C 33,8 km/h (5 Bft) 100 %
21.11.2017 08:30 6,2 C 6,2 C 6,2 C 91 % 1016,3 hPa 0,0 l/m 12,9 km/h (3 Bft) SW 225 0 min 0,000 mm 9 W/m 4,8 C 1,6 C 35,4 km/h (5 Bft) 100 %
21.11.2017 08:40 6,2 C 6,2 C 6,2 C 91 % 1016,4 hPa 0,0 l/m 12,9 km/h (3 Bft) SW 225 0 min 0,000 mm 12 W/m 4,8 C 1,6 C 25,7 km/h (4 Bft) 100 %
21.11.2017 08:50 6,2 C 6,2 C 6,2 C 91 % 1016,5 hPa 0,0 l/m 12,9 km/h (3 Bft) W-SW 247 0 min 0,000 mm 9 W/m 4,8 C 1,6 C 37,0 km/h (5 Bft) 100 %
21.11.2017 09:00 6,3 C 6,2 C 6,3 C 91 % 1016,7 hPa 0,0 l/m 14,5 km/h (3 Bft) W 270 0 min 0,025 mm 9 W/m 4,9 C 0,9 C 38,6 km/h (5 Bft) 100 %
21.11.2017 09:10 6,3 C 6,2 C 6,3 C 91 % 1016,8 hPa 0,0 l/m 8,0 km/h (2 Bft) W 270 0 min 0,000 mm 12 W/m 4,9 C 5,0 C 27,4 km/h (4 Bft) 100 %
21.11.2017 09:20 6,3 C 6,3 C 6,3 C 91 % 1016,7 hPa 0,2 l/m 8,0 km/h (2 Bft) W-SW 247 0 min 0,000 mm 21 W/m 4,9 C 5,0 C 25,7 km/h (4 Bft) 100 %
21.11.2017 09:30 6,3 C 6,3 C 6,3 C 91 % 1016,8 hPa 0,0 l/m 9,7 km/h (2 Bft) W-SW 247 0 min 0,000 mm 30 W/m 4,9 C 3,7 C 25,7 km/h (4 Bft) 100 %
21.11.2017 09:40 6,3 C 6,3 C 6,3 C 90 % 1016,8 hPa 0,2 l/m 6,4 km/h (2 Bft) W-SW 247 0 min 0,000 mm 35 W/m 4,8 C 6,3 C 20,9 km/h (4 Bft) 100 %
21.11.2017 09:50 6,3 C 6,3 C 6,3 C 90 % 1016,8 hPa 0,0 l/m 8,0 km/h (2 Bft) SW 225 0 min 0,000 mm 62 W/m 4,8 C 5,0 C 25,7 km/h (4 Bft) 100 %
21.11.2017 10:00 6,3 C 6,3 C 6,3 C 90 % 1016,9 hPa 0,2 l/m 9,7 km/h (2 Bft) W 270 0 min 0,025 mm 62 W/m 4,8 C 3,7 C 24,1 km/h (4 Bft) 100 %
21.11.2017 10:10 6,3 C 6,3 C 6,3 C 90 % 1016,8 hPa 0,0 l/m 6,8 km/h (2 Bft) W-SW 255 0 min 0,000 mm 51 W/m 4,8 C 6,0 C 17,7 km/h (3 Bft) 100 %
21.11.2017 10:20 6,3 C 6,3 C 6,3 C 90 % 1016,7 hPa 0,2 l/m 10,4 km/h (2 Bft) W-SW 248 0 min 0,000 mm 44 W/m 4,8 C 3,2 C 27,4 km/h (4 Bft) 100 %
21.11.2017 10:30 6,3 C 6,3 C 6,3 C 90 % 1016,7 hPa 0,0 l/m 7,7 km/h (2 Bft) W-SW 254 0 min 0,000 mm 30 W/m 4,8 C 5,2 C 22,5 km/h (4 Bft) 100 %
21.11.2017 10:40 6,3 C 6,3 C 6,3 C 90 % 1016,7 hPa 0,0 l/m 8,6 km/h (2 Bft) SW 219 0 min 0,000 mm 32 W/m 4,8 C 4,5 C 22,5 km/h (4 Bft) 100 %
21.11.2017 10:50 6,3 C 6,3 C 6,3 C 90 % 1016,8 hPa 0,0 l/m 11,7 km/h (2 Bft) S-SW 198 0 min 0,000 mm 44 W/m 4,8 C 2,4 C 25,7 km/h (4 Bft) 100 %
21.11.2017 11:00 6,3 C 6,3 C 6,3 C 90 % 1016,8 hPa 0,2 l/m 10,9 km/h (2 Bft) SW 219 0 min 0,004 mm 42 W/m 4,8 C 2,9 C 22,5 km/h (4 Bft) 100 %
21.11.2017 11:10 6,3 C 6,3 C 6,3 C 90 % 1016,7 hPa 0,0 l/m 9,0 km/h (2 Bft) SW 229 0 min 0,000 mm 42 W/m 4,8 C 4,2 C 20,9 km/h (4 Bft) 100 %
21.11.2017 11:20 6,4 C 6,3 C 6,4 C 90 % 1016,6 hPa 0,0 l/m 8,1 km/h (2 Bft) SW 227 0 min 0,000 mm 56 W/m 4,9 C 5,0 C 25,7 km/h (4 Bft) 91 %
21.11.2017 11:30 6,4 C 6,4 C 6,4 C 90 % 1016,6 hPa 0,2 l/m 10,9 km/h (2 Bft) S-SW 207 0 min 0,000 mm 53 W/m 4,9 C 3,0 C 32,2 km/h (5 Bft) 100 %
21.11.2017 11:40 6,4 C 6,4 C 6,4 C 90 % 1016,6 hPa 0,0 l/m 11,3 km/h (2 Bft) SW 218 0 min 0,000 mm 35 W/m 4,9 C 2,8 C 29,0 km/h (5 Bft) 100 %
21.11.2017 11:50 6,4 C 6,4 C 6,4 C 90 % 1016,4 hPa 0,0 l/m 9,2 km/h (2 Bft) W-SW 240 0 min 0,000 mm 65 W/m 4,9 C 4,2 C 22,5 km/h (4 Bft) 100 %
21.11.2017 12:00 6,4 C 6,4 C 6,4 C 91 % 1016,4 hPa 0,2 l/m 8,3 km/h (2 Bft) SW 220 0 min 0,025 mm 49 W/m 5,0 C 4,8 C 24,1 km/h (4 Bft) 100 %
21.11.2017 12:10 6,4 C 6,4 C 6,5 C 91 % 1016,2 hPa 0,0 l/m 12,7 km/h (3 Bft) S-SW 204 0 min 0,000 mm 56 W/m 5,0 C 2,0 C 25,7 km/h (4 Bft) 100 %
21.11.2017 12:20 6,4 C 6,4 C 6,5 C 91 % 1016,3 hPa 0,0 l/m 8,0 km/h (2 Bft) W 261 0 min 0,000 mm 49 W/m 5,0 C 5,1 C 22,5 km/h (4 Bft) 91 %
21.11.2017 12:30 6,4 C 6,4 C 6,5 C 90 % 1016,2 hPa 0,2 l/m 9,9 km/h (2 Bft) SW 218 0 min 0,000 mm 47 W/m 4,9 C 3,7 C 22,5 km/h (4 Bft) 100 %
21.11.2017 12:40 6,4 C 6,4 C 6,4 C 90 % 1016,0 hPa 0,0 l/m 9,9 km/h (2 Bft) W 267 0 min 0,000 mm 44 W/m 4,9 C 3,7 C 33,8 km/h (5 Bft) 100 %
21.11.2017 12:50 6,4 C 6,4 C 6,4 C 90 % 1016,2 hPa 0,0 l/m 10,3 km/h (2 Bft) SW 229 0 min 0,000 mm 46 W/m 4,9 C 3,4 C 29,0 km/h (5 Bft) 100 %
21.11.2017 13:00 6,4 C 6,4 C 6,4 C 90 % 1016,1 hPa 0,0 l/m 16,2 km/h (3 Bft) W 261 0 min 0,026 mm 49 W/m 4,9 C 0,2 C 32,2 km/h (5 Bft) 100 %
21.11.2017 13:10 6,4 C 6,4 C 6,4 C 90 % 1015,9 hPa 0,0 l/m 12,2 km/h (2 Bft) SW 233 0 min 0,000 mm 46 W/m 4,9 C 2,3 C 33,8 km/h (5 Bft) 100 %
21.11.2017 13:20 6,4 C 6,4 C 6,4 C 91 % 1015,8 hPa 0,0 l/m 12,8 km/h (3 Bft) W 262 0 min 0,000 mm 30 W/m 5,0 C 1,9 C 29,0 km/h (5 Bft) 100 %
21.11.2017 13:30 6,4 C 6,4 C 6,4 C 91 % 1015,7 hPa 0,0 l/m 13,1 km/h (3 Bft) W-SW 257 0 min 0,000 mm 37 W/m 5,0 C 1,7 C 35,4 km/h (5 Bft) 100 %
21.11.2017 13:40 6,5 C 6,4 C 6,5 C 91 % 1015,6 hPa 0,0 l/m 7,3 km/h (2 Bft) W-SW 247 0 min 0,000 mm 32 W/m 5,1 C 5,7 C 22,5 km/h (4 Bft) 100 %
21.11.2017 13:50 6,5 C 6,5 C 6,5 C 91 % 1015,6 hPa 0,0 l/m 7,8 km/h (2 Bft) S-SW 210 0 min 0,000 mm 26 W/m 5,1 C 5,3 C 25,7 km/h (4 Bft) 100 %
21.11.2017 14:00 6,6 C 6,5 C 6,6 C 91 % 1015,5 hPa 0,0 l/m 8,3 km/h (2 Bft) W-SW 240 0 min 0,025 mm 33 W/m 5,2 C 5,1 C 24,1 km/h (4 Bft) 100 %
21.11.2017 14:10 6,6 C 6,6 C 6,6 C 91 % 1015,5 hPa 0,0 l/m 6,2 km/h (2 Bft) SW 236 0 min 0,000 mm 28 W/m 5,2 C 6,6 C 24,1 km/h (4 Bft) 100 %
21.11.2017 14:20 6,6 C 6,6 C 6,6 C 91 % 1015,4 hPa 0,0 l/m 4,6 km/h (1 Bft) W-SW 243 0 min 0,000 mm 32 W/m 5,2 C 6,6 C 14,5 km/h (3 Bft) 100 %
21.11.2017 14:30 6,7 C 6,6 C 6,7 C 90 % 1015,4 hPa 0,0 l/m 5,1 km/h (1 Bft) S-SW 213 0 min 0,000 mm 35 W/m 5,2 C 6,7 C 22,5 km/h (4 Bft) 99 %
21.11.2017 14:40 6,7 C 6,7 C 6,7 C 90 % 1015,5 hPa 0,0 l/m 7,0 km/h (2 Bft) W-SW 254 0 min 0,000 mm 39 W/m 5,2 C 6,2 C 24,1 km/h (4 Bft) 100 %
21.11.2017 14:50 6,8 C 6,7 C 6,8 C 90 % 1015,5 hPa 0,0 l/m 4,5 km/h (1 Bft) SW 225 0 min 0,000 mm 49 W/m 5,3 C 6,8 C 17,7 km/h (3 Bft) 100 %
21.11.2017 15:00 6,9 C 6,8 C 6,9 C 91 % 1015,4 hPa 0,0 l/m 6,0 km/h (2 Bft) W-NW 294 0 min 0,026 mm 62 W/m 5,5 C 6,9 C 25,7 km/h (4 Bft) 100 %
21.11.2017 15:10 7,0 C 6,9 C 7,0 C 90 % 1015,4 hPa 0,0 l/m 4,4 km/h (1 Bft) W-SW 257 0 min 0,000 mm 54 W/m 5,5 C 7,0 C 19,3 km/h (3 Bft) 100 %
21.11.2017 15:20 7,1 C 7,0 C 7,1 C 90 % 1015,4 hPa 0,0 l/m 2,4 km/h (1 Bft) W 265 0 min 0,000 mm 65 W/m 5,6 C 7,1 C 11,3 km/h (2 Bft) 100 %
21.11.2017 15:30 7,2 C 7,1 C 7,2 C 90 % 1015,3 hPa 0,0 l/m 4,0 km/h (1 Bft) W 263 0 min 0,000 mm 49 W/m 5,7 C 7,2 C 16,1 km/h (3 Bft) 100 %
21.11.2017 15:40 7,2 C 7,2 C 7,2 C 90 % 1015,1 hPa 0,0 l/m 6,9 km/h (2 Bft) W 276 0 min 0,000 mm 35 W/m 5,7 C 6,8 C 20,9 km/h (4 Bft) 100 %
21.11.2017 15:50 7,1 C 7,1 C 7,2 C 91 % 1015,1 hPa 0,0 l/m 8,0 km/h (2 Bft) W 273 0 min 0,000 mm 25 W/m 5,7 C 5,8 C 25,7 km/h (4 Bft) 91 %
21.11.2017 16:00 7,1 C 7,1 C 7,1 C 91 % 1015,1 hPa 0,0 l/m 11,6 km/h (2 Bft) W 281 0 min 0,000 mm 18 W/m 5,7 C 3,4 C 25,7 km/h (4 Bft) 100 %
21.11.2017 16:10 6,9 C 6,9 C 7,1 C 91 % 1015,2 hPa 0,0 l/m 9,0 km/h (2 Bft) S-SW 210 0 min 0,025 mm 12 W/m 5,5 C 4,9 C 22,5 km/h (4 Bft) 100 %
21.11.2017 16:20 6,8 C 6,8 C 6,9 C 91 % 1015,2 hPa 0,0 l/m 7,1 km/h (2 Bft) W 270 0 min 0,000 mm 7 W/m 5,4 C 6,2 C 17,7 km/h (3 Bft) 100 %
21.11.2017 16:30 6,8 C 6,8 C 6,8 C 91 % 1015,2 hPa 0,0 l/m 6,9 km/h (2 Bft) W-SW 248 0 min 0,000 mm 0 W/m 5,4 C 6,4 C 16,1 km/h (3 Bft) 100 %
21.11.2017 16:40 6,6 C 6,6 C 6,8 C 91 % 1015,0 hPa 0,0 l/m 4,5 km/h (1 Bft) W-SW 256 0 min 0,000 mm 0 W/m 5,2 C 6,6 C 11,3 km/h (2 Bft) 100 %
21.11.2017 16:50 6,4 C 6,4 C 6,6 C 91 % 1015,2 hPa 0,0 l/m 5,0 km/h (1 Bft) W 272 0 min 0,000 mm 0 W/m 5,0 C 6,4 C 11,3 km/h (2 Bft) 100 %
21.11.2017 17:00 6,3 C 6,3 C 6,4 C 91 % 1015,2 hPa 0,0 l/m 3,1 km/h (1 Bft) W-SW 258 0 min 0,000 mm 0 W/m 4,9 C 6,3 C 11,3 km/h (2 Bft) 100 %
21.11.2017 17:10 6,2 C 6,2 C 6,3 C 91 % 1015,3 hPa 0,0 l/m 3,5 km/h (1 Bft) W 260 0 min 0,000 mm 0 W/m 4,8 C 6,2 C 11,3 km/h (2 Bft) 100 %
21.11.2017 17:20 6,1 C 6,1 C 6,2 C 91 % 1015,3 hPa 0,0 l/m 1,8 km/h (1 Bft) W 262 0 min 0,000 mm 0 W/m 4,7 C 6,1 C 9,7 km/h (2 Bft) 100 %
21.11.2017 17:30 6,0 C 6,0 C 6,1 C 91 % 1015,1 hPa 0,0 l/m 2,8 km/h (1 Bft) SW 228 0 min 0,000 mm 0 W/m 4,6 C 6,0 C 11,3 km/h (2 Bft) 100 %
21.11.2017 17:40 6,0 C 6,0 C 6,0 C 90 % 1015,2 hPa 0,0 l/m 1,8 km/h (1 Bft) SW 228 0 min 0,000 mm 0 W/m 4,5 C 6,0 C 9,7 km/h (2 Bft) 100 %
21.11.2017 17:50 6,0 C 6,0 C 6,0 C 90 % 1015,3 hPa 0,0 l/m 0,4 km/h (0 Bft) W-SW 238 0 min 0,000 mm 0 W/m 4,5 C 6,0 C 4,8 km/h (1 Bft) 100 %
21.11.2017 18:00 6,1 C 6,0 C 6,1 C 91 % 1015,3 hPa 0,0 l/m 2,2 km/h (1 Bft) SW 215 0 min 0,000 mm 0 W/m 4,7 C 6,1 C 6,4 km/h (2 Bft) 100 %
21.11.2017 18:10 6,2 C 6,1 C 6,2 C 91 % 1015,3 hPa 0,0 l/m 3,3 km/h (1 Bft) W 259 0 min 0,000 mm 0 W/m 4,8 C 6,2 C 6,4 km/h (2 Bft) 100 %
21.11.2017 18:20 6,2 C 6,2 C 6,2 C 91 % 1015,3 hPa 0,0 l/m 2,8 km/h (1 Bft) SW 222 0 min 0,000 mm 0 W/m 4,8 C 6,2 C 9,7 km/h (2 Bft) 99 %
21.11.2017 18:30 6,1 C 6,1 C 6,2 C 91 % 1015,2 hPa 0,0 l/m 1,6 km/h (1 Bft) S-SO 158 0 min 0,000 mm 0 W/m 4,7 C 6,1 C 8,0 km/h (2 Bft) 100 %
21.11.2017 18:40 6,0 C 6,0 C 6,1 C 91 % 1015,0 hPa 0,0 l/m 5,2 km/h (1 Bft) W-SW 238 0 min 0,000 mm 0 W/m 4,6 C 6,0 C 19,3 km/h (3 Bft) 100 %
21.11.2017 18:50 5,9 C 5,9 C 6,0 C 91 % 1015,0 hPa 0,0 l/m 3,2 km/h (1 Bft) S-SW 211 0 min 0,000 mm 0 W/m 4,5 C 5,9 C 9,7 km/h (2 Bft) 100 %
21.11.2017 19:00 5,8 C 5,8 C 5,9 C 91 % 1015,3 hPa 0,0 l/m 2,4 km/h (1 Bft) SW 224 0 min 0,000 mm 0 W/m 4,4 C 5,8 C 8,0 km/h (2 Bft) 100 %
21.11.2017 19:10 5,8 C 5,8 C 5,8 C 91 % 1015,2 hPa 0,0 l/m 3,8 km/h (1 Bft) W 273 0 min 0,000 mm 0 W/m 4,4 C 5,8 C 14,5 km/h (3 Bft) 100 %
21.11.2017 19:20 5,8 C 5,8 C 5,8 C 91 % 1015,3 hPa 0,0 l/m 3,9 km/h (1 Bft) W-SW 254 0 min 0,000 mm 0 W/m 4,4 C 5,8 C 12,9 km/h (3 Bft) 100 %
21.11.2017 19:30 5,8 C 5,8 C 5,8 C 91 % 1015,3 hPa 0,0 l/m 4,3 km/h (1 Bft) W-SW 249 0 min 0,000 mm 0 W/m 4,4 C 5,8 C 16,1 km/h (3 Bft) 100 %
21.11.2017 19:40 5,8 C 5,8 C 5,8 C 91 % 1015,2 hPa 0,0 l/m 6,7 km/h (2 Bft) W-SW 247 0 min 0,000 mm 0 W/m 4,4 C 5,6 C 16,1 km/h (3 Bft) 100 %
21.11.2017 19:50 5,8 C 5,8 C 5,8 C 91 % 1015,0 hPa 0,0 l/m 8,9 km/h (2 Bft) SW 229 0 min 0,000 mm 0 W/m 4,4 C 3,7 C 24,1 km/h (4 Bft) 100 %
21.11.2017 20:00 5,8 C 5,7 C 5,8 C 91 % 1014,9 hPa 0,0 l/m 6,7 km/h (2 Bft) SW 219 0 min 0,000 mm 0 W/m 4,4 C 5,6 C 17,7 km/h (3 Bft) 100 %
21.11.2017 20:10 5,7 C 5,7 C 5,8 C 91 % 1014,8 hPa 0,0 l/m 7,4 km/h (2 Bft) S-SW 213 0 min 0,000 mm 0 W/m 4,3 C 4,8 C 19,3 km/h (3 Bft) 100 %
21.11.2017 20:20 5,6 C 5,6 C 5,7 C 91 % 1015,0 hPa 0,0 l/m 6,1 km/h (2 Bft) W 267 0 min 0,000 mm 0 W/m 4,2 C 5,6 C 22,5 km/h (4 Bft) 100 %
21.11.2017 20:30 5,6 C 5,6 C 5,6 C 91 % 1015,1 hPa 0,0 l/m 5,8 km/h (2 Bft) SW 227 0 min 0,000 mm 0 W/m 4,2 C 5,6 C 16,1 km/h (3 Bft) 100 %
21.11.2017 20:40 5,6 C 5,6 C 5,6 C 91 % 1015,2 hPa 0,0 l/m 4,1 km/h (1 Bft) SW 216 0 min 0,000 mm 0 W/m 4,2 C 5,6 C 9,7 km/h (2 Bft) 100 %
21.11.2017 20:50 5,4 C 5,4 C 5,6 C 91 % 1014,9 hPa 0,0 l/m 4,3 km/h (1 Bft) S-SW 196 0 min 0,000 mm 0 W/m 4,1 C 5,4 C 9,7 km/h (2 Bft) 100 %
21.11.2017 21:00 5,2 C 5,2 C 5,4 C 91 % 1014,8 hPa 0,0 l/m 3,6 km/h (1 Bft) S-SO 149 0 min 0,000 mm 0 W/m 3,9 C 5,2 C 8,0 km/h (2 Bft) 100 %
21.11.2017 21:10 5,1 C 5,1 C 5,2 C 91 % 1014,8 hPa 0,0 l/m 3,2 km/h (1 Bft) S-SO 157 0 min 0,000 mm 0 W/m 3,8 C 5,1 C 9,7 km/h (2 Bft) 98 %
21.11.2017 21:20 5,0 C 5,0 C 5,1 C 91 % 1014,8 hPa 0,0 l/m 4,8 km/h (1 Bft) S-SO 157 0 min 0,000 mm 0 W/m 3,7 C 5,0 C 9,7 km/h (2 Bft) 97 %
21.11.2017 21:30 4,9 C 4,9 C 5,1 C 90 % 1015,0 hPa 0,0 l/m 4,8 km/h (1 Bft) S-SO 157 0 min 0,000 mm 0 W/m 3,4 C 4,9 C 9,7 km/h (2 Bft) 98 %
21.11.2017 21:40 5,0 C 4,9 C 5,0 C 91 % 1014,9 hPa 0,0 l/m 4,8 km/h (1 Bft) SO 135 0 min 0,000 mm 0 W/m 3,7 C 5,0 C 11,3 km/h (2 Bft) 97 %
21.11.2017 21:50 5,1 C 5,0 C 5,1 C 91 % 1014,8 hPa 0,0 l/m 6,4 km/h (2 Bft) SO 135 0 min 0,000 mm 0 W/m 3,8 C 5,1 C 11,3 km/h (2 Bft) 98 %
21.11.2017 22:00 5,3 C 5,1 C 5,3 C 90 % 1014,8 hPa 0,0 l/m 6,4 km/h (2 Bft) SO 135 0 min 0,000 mm 0 W/m 3,8 C 5,3 C 11,3 km/h (2 Bft) 98 %
21.11.2017 22:10 5,2 C 5,2 C 5,3 C 90 % 1014,7 hPa 0,0 l/m 4,8 km/h (1 Bft) SO 135 0 min 0,000 mm 0 W/m 3,7 C 5,2 C 9,7 km/h (2 Bft) 87 %
21.11.2017 22:20 5,3 C 5,2 C 5,3 C 90 % 1014,8 hPa 0,0 l/m 4,8 km/h (1 Bft) SO 135 0 min 0,000 mm 0 W/m 3,8 C 5,3 C 9,7 km/h (2 Bft) 98 %
21.11.2017 22:30 5,2 C 5,2 C 5,3 C 90 % 1014,7 hPa 0,0 l/m 1,6 km/h (1 Bft) SO 135 0 min 0,000 mm 0 W/m 3,7 C 5,2 C 8,0 km/h (2 Bft) 97 %
21.11.2017 22:40 5,2 C 5,2 C 5,3 C 90 % 1014,6 hPa 0,0 l/m 4,8 km/h (1 Bft) SO 135 0 min 0,000 mm 0 W/m 3,7 C 5,2 C 11,3 km/h (2 Bft) 98 %
21.11.2017 22:50 5,2 C 5,1 C 5,2 C 91 % 1014,6 hPa 0,0 l/m 3,2 km/h (1 Bft) SO 135 0 min 0,000 mm 0 W/m 3,9 C 5,2 C 9,7 km/h (2 Bft) 97 %
21.11.2017 23:00 5,1 C 5,1 C 5,2 C 91 % 1014,5 hPa 0,0 l/m 1,6 km/h (1 Bft) SO 135 0 min 0,000 mm 0 W/m 3,8 C 5,1 C 6,4 km/h (2 Bft) 97 %
21.11.2017 23:10 5,1 C 5,1 C 5,2 C 91 % 1014,5 hPa 0,0 l/m 0,0 km/h (0 Bft) O-SO 112 0 min 0,000 mm 0 W/m 3,8 C 5,1 C 6,4 km/h (2 Bft) 98 %
21.11.2017 23:20 4,8 C 4,8 C 5,1 C 91 % 1014,6 hPa 0,0 l/m 0,0 km/h (0 Bft) N 0 0 min 0,000 mm 0 W/m 3,5 C 4,8 C 0,0 km/h (0 Bft) 97 %
21.11.2017 23:30 4,8 C 4,8 C 4,8 C 91 % 1014,5 hPa 0,0 l/m 3,2 km/h (1 Bft) SO 135 0 min 0,000 mm 0 W/m 3,5 C 4,8 C 8,0 km/h (2 Bft) 97 %
21.11.2017 23:40 4,8 C 4,8 C 4,8 C 91 % 1014,6 hPa 0,0 l/m 4,8 km/h (1 Bft) SO 135 0 min 0,000 mm 0 W/m 3,5 C 4,8 C 9,7 km/h (2 Bft) 97 %
21.11.2017 23:50 4,8 C 4,8 C 4,8 C 91 % 1014,5 hPa 0,0 l/m 4,8 km/h (1 Bft) SO 135 0 min 0,000 mm 0 W/m 3,5 C 4,8 C 9,7 km/h (2 Bft) 97 %
_ Min-Zeit 00:00 00:00 00:00 00:10 23:00 - 23:10 - - - - - 00:10 01:10 23:20 22:10
Minimum _ 4,8 C 4,8 C 4,8 C 90 % 1014,5 hPa - 0,0 km/h (0 Bft) - - - - - 3,4 C -2,0 C 0,0 km/h (0 Bft) 87 %
_ Max-Zeit 15:30 15:40 15:30 00:00 10:00 00:00 01:10 - - 00:00 13:00 11:50 15:50 15:30 01:20 00:10
Maximum _ 7,2 C 7,2 C 7,2 C 91 % 1016,9 hPa 0,2 l/m 17,7 km/h
W-SW (3 Bft)
- - 0 min 0,026 mm 65 W/m 5,7 C 7,2 C 40,2 km/h
SW (6 Bft)
100 %
Durchschnitt _ 5,9 C 5,9 C 6,0 C 91 % 1015,8 hPa #2,0 l/m 9,0 km/h (2 Bft) W-SW - #0 min. #0,381 mm 38 W/m 4,5 C 3,5 C 23,3 km/h (4 Bft) 99 %
PRIVATE WETTERSTATION BILLIGHEIM-ALLFELD - www.neckar-odenwald-wetter.de - Holger Sonntag